Shelton, WA
on Monday, December 3, 2012

Monday
Previous Day Next Day
Daily Summary
 ActualAverage (KOLM)Record (KOLM)
Temperature
Mean Temperature °F 40°F  
Max Temperature 48°F 46°F 59°F (1982)
Min Temperature 44°F 33°F 17°F (1994)
Degree Days
Heating Degree Days 19 26  
Month to date heating degree days 76  
Since 1 July heating degree days 1521  
Cooling Degree Days 0 0  
Month to date cooling degree days 0  
Year to date cooling degree days 106  
Moisture
Dew Point 45°F   
Average Humidity 94    
Maximum Humidity 100    
Minimum Humidity 83    
Precipitation
Precipitation 0.75 in 0.28 in 3.19 in (2007)
Month to date precipitation 0.85  
Year to date precipitation 43.39  
Wind
Wind Speed 8 mph   
Max Wind Speed 24 mph   
Max Gust Speed 32 mph   
Visibility 10 miles   
Events Rain   

Key: T is trace of precipitation, MM is missing value
Source: NWS Daily Summary
Time(PST)TemperatureDew PointHumidity Pressure Visibility Wind DirectionWind SpeedGust SpeedPrecipitationEvents Conditions
12:38 AM 44.6°F 44.6°F 100% 29.76 in 10.0 miles SSW 4.6 mph - 0.05 in Rain Light Rain
12:53 AM 46.0°F 44.1°F 93% 29.78 in 10.0 miles South 6.9 mph - 0.06 in Rain Light Rain
1:22 AM 44.6°F 42.8°F 93% 29.79 in 10.0 miles WSW 6.9 mph 16.1 mph 0.00 in Rain Light Rain
1:53 AM 46.9°F 43.0°F 86% 29.80 in 10.0 miles SSW 16.1 mph 24.2 mph 0.00 in   Mostly Cloudy
2:01 AM 46.4°F 42.8°F 87% 29.79 in 10.0 miles SW 17.3 mph 27.6 mph 0.00 in Rain Light Rain
2:23 AM 46.4°F 44.6°F 93% 29.79 in 10.0 miles SW 15.0 mph 19.6 mph 0.01 in Rain Light Rain
2:46 AM 46.4°F 42.8°F 87% 29.80 in 10.0 miles SSW 24.2 mph 32.2 mph 0.01 in Rain Light Rain
2:53 AM 46.9°F 42.1°F 83% 29.81 in 10.0 miles SSW 20.7 mph 32.2 mph 0.01 in Rain Light Rain
3:07 AM 46.4°F 42.8°F 87% 29.81 in 10.0 miles SSW 19.6 mph 32.2 mph 0.00 in Rain Light Rain
3:53 AM 46.9°F 43.0°F 86% 29.85 in 10.0 miles WSW 11.5 mph 31.1 mph 0.10 in Rain Rain
4:46 AM 44.6°F 42.8°F 93% 29.85 in 10.0 miles WSW 16.1 mph 21.9 mph 0.14 in Rain Rain
4:53 AM 45.0°F 42.1°F 90% 29.86 in 10.0 miles WSW 11.5 mph 21.9 mph 0.17 in Rain Rain
5:53 AM 45.0°F 43.0°F 93% 29.86 in 10.0 miles SW 16.1 mph - 0.11 in Rain Light Rain
6:18 AM 44.6°F 44.6°F 100% 29.85 in 10.0 miles SSW 13.8 mph - 0.01 in   Overcast
6:34 AM 44.6°F 44.6°F 100% 29.86 in 10.0 miles SW 9.2 mph - N/A   Overcast
6:53 AM 45.0°F 44.1°F 97% 29.88 in 10.0 miles SSW 8.1 mph - 0.01 in Rain Light Rain
7:31 AM 46.4°F 42.8°F 87% 29.89 in 10.0 miles WSW 8.1 mph - 0.02 in   Overcast
7:53 AM 45.0°F 43.0°F 93% 29.91 in 10.0 miles WSW 5.8 mph - 0.02 in   Overcast
8:03 AM 44.6°F 44.6°F 100% 29.91 in 10.0 miles West 4.6 mph - N/A   Overcast
8:11 AM 44.6°F 44.6°F 100% 29.91 in 10.0 miles SSW 4.6 mph - 0.00 in Rain Light Rain
8:53 AM 45.0°F 44.1°F 97% 29.93 in 10.0 miles ESE 3.5 mph - 0.00 in   Overcast
9:05 AM 44.6°F 44.6°F 100% 29.93 in 10.0 miles Calm Calm - N/A   Overcast
9:27 AM 46.4°F 44.6°F 93% 29.94 in 10.0 miles SSW 4.6 mph - 0.01 in Rain Light Rain
9:53 AM 46.0°F 45.0°F 96% 29.96 in 10.0 miles SSE 4.6 mph - 0.01 in   Overcast
10:02 AM 46.4°F 44.6°F 93% 29.95 in 10.0 miles South 5.8 mph - N/A   Overcast
10:29 AM 46.4°F 46.4°F 100% 29.96 in 10.0 miles SE 3.5 mph - N/A   Overcast
10:39 AM 46.4°F 46.4°F 100% 29.96 in 10.0 miles SSE 3.5 mph - N/A   Overcast
10:53 AM 48.0°F 46.0°F 93% 29.98 in 10.0 miles ESE 4.6 mph - N/A   Overcast
11:09 AM 48.2°F 46.4°F 93% 29.96 in 10.0 miles Calm Calm - N/A   Overcast
11:18 AM 48.2°F 46.4°F 93% 29.96 in 10.0 miles ESE 4.6 mph - N/A   Overcast
11:30 AM 48.2°F 44.6°F 87% 29.97 in 10.0 miles SE 3.5 mph - N/A   Overcast
11:53 AM 46.9°F 45.0°F 93% 29.97 in 10.0 miles Calm Calm - 0.00 in Rain Light Rain
11:58 AM 46.4°F 46.4°F 100% 29.96 in 10.0 miles ESE 3.5 mph - 0.01 in Rain Light Rain
12:53 PM 48.0°F 46.0°F 93% 29.96 in 10.0 miles ESE 5.8 mph - 0.02 in   Overcast
1:53 PM 48.0°F 46.9°F 96% 29.94 in 10.0 miles Calm Calm - 0.02 in Rain Light Rain
2:02 PM 48.2°F 46.4°F 93% 29.93 in 9.0 miles Calm Calm - 0.02 in Rain Light Rain
2:53 PM 48.0°F 46.9°F 96% 29.92 in 9.0 miles Calm Calm - 0.05 in Rain Light Rain
3:26 PM 48.2°F 46.4°F 93% 29.90 in 10.0 miles ESE 3.5 mph - 0.03 in Rain Light Rain
3:36 PM 48.2°F 48.2°F 100% 29.90 in 10.0 miles SE 4.6 mph - 0.03 in Rain Light Rain
3:53 PM 48.0°F 46.9°F 96% 29.91 in 10.0 miles SE 4.6 mph - 0.04 in Rain Light Rain
4:01 PM 48.2°F 46.4°F 93% 29.90 in 9.0 miles SE 6.9 mph - 0.01 in Rain Light Rain
4:19 PM 48.2°F 46.4°F 93% 29.88 in 10.0 miles SE 5.8 mph - 0.02 in   Overcast
4:53 PM 48.0°F 46.9°F 96% 29.88 in 10.0 miles SE 4.6 mph - 0.03 in   Overcast
5:07 PM 48.2°F 46.4°F 93% 29.87 in 10.0 miles SE 4.6 mph - 0.00 in   Overcast
5:53 PM 48.0°F 46.9°F 96% 29.87 in 10.0 miles SE 6.9 mph - 0.00 in   Overcast
6:53 PM 48.0°F 46.9°F 96% 29.85 in 10.0 miles SE 6.9 mph - 0.01 in Rain Light Rain
7:14 PM 48.2°F 46.4°F 93% 29.82 in 10.0 miles SE 8.1 mph - 0.02 in Rain Light Rain
7:53 PM 48.0°F 46.0°F 93% 29.81 in 10.0 miles SE 6.9 mph - 0.03 in Rain Light Rain
8:53 PM 48.0°F 46.0°F 93% 29.77 in 10.0 miles SE 5.8 mph - 0.01 in   Overcast
9:53 PM 48.0°F 45.0°F 89% 29.72 in 10.0 miles SSE 4.6 mph - N/A   Overcast
10:53 PM 46.9°F 46.0°F 97% 29.68 in 10.0 miles NE 3.5 mph - 0.00 in Rain Light Rain
11:53 PM 46.9°F 45.0°F 93% 29.63 in 10.0 miles NNE 4.6 mph - 0.05 in Rain Light Rain
Moon Phase
Dec. 03 Dec. 06 Dec. 13 Dec. 20 Dec. 28
Sunrise:07:41 AM (PST) Moon Rise:09:27 PM (PST)12/3
Sunset:04:23 PM (PST) Moon Set:10:57 AM (PST)12/3

Copyright © 2014 The Weather Underground, Inc.